Flag for Austria Weather past 2 weeks in Murau, Styria, Austria

Now
75 °F

Scattered clouds.


Feels Like: 78 °F
Forecast: 51 / 80 °F
Wind: 3 mph from North

Location: Zeltweg

Current Time: Aug 3, 2015 at 5:13:41 PM

Latest Report: Aug 3, 2015 at 4:50 PM


Visibility: 15 mi

Pressure: 30.12 "Hg (27.32 "Hg at 848m altitude)

Humidity: 57%

Dew point: 59 °F

Location of MurauLocation

Historic Weather in Murau — Graph

°F

Murau temperature yesterday

Maximum temperature yesterday: 63 °F (at 6:50 PM)
Minimum temperature yesterday: 57 °F (at 9:50 PM)
Average temperature yesterday: 60 °F

Past Weeks' High & Low Weather Summary

 TemperatureHumidityPressure
High90 °F (Jul 19, 3:20 PM)100% (Jul 20, 5:50 AM)30.18 "Hg (Jul 20, 5:50 AM)
Low48 °F (Aug 1, 5:50 AM)31% (Jul 19, 3:50 PM)29.80 "Hg (Jul 27, 5:50 AM)
Average66 °F76%29.99 "Hg
* Reported Jul 19 3:20 PM — Aug 3 3:50 PM, Murau, Weather by CustomWeather, © 2015

Note: Actual official high and low records may vary slightly from our data, if they occured in-between our weather recording intervals... More about our weather records

Advertising

Murau weather history for previous 24 hours

 ConditionsComfort  
Time TempWeatherWind HumidityBarometerVisibility
3:50 PM
Mon, Aug 3
77 °FScattered clouds.3 mph54%30.12 "Hg16 mi
2:50 PM75 °FScattered clouds.3 mph61%30.15 "Hg16 mi
1:50 PM72 °FScattered clouds.5 mph65%30.15 "Hg16 mi
12:50 PM68 °FScattered clouds.3 mph73%30.15 "Hg16 mi
11:50 AM66 °FScattered clouds.3 mph73%30.18 "Hg16 mi
10:50 AM64 °FPartly sunny.2 mph78%30.18 "Hg12 mi
9:50 AM61 °FPartly sunny.2 mph83%30.18 "Hg12 mi
8:50 AM59 °FPartly sunny.1 mph88%30.18 "Hg12 mi
7:50 AM57 °FPartly sunny.1 mph88%30.18 "Hg12 mi
6:50 AM55 °FPartly sunny.3 mph94%30.18 "Hg12 mi
5:50 AM57 °FLow clouds.2 mph88%30.15 "Hg12 mi
4:50 AM57 °FLow clouds.2 mph94%30.18 "Hg9 mi
10:50 PM
Sun, Aug 2
59 °FPassing clouds.1 mph94%30.18 "Hg9 mi
9:50 PM57 °FPassing clouds.5 mph100%30.18 "Hg9 mi
8:50 PM59 °FPartly sunny.2 mph100%30.18 "Hg12 mi
7:50 PM61 °FBroken clouds.1 mph100%30.15 "Hg6 mi
6:50 PM63 °FBroken clouds.1 mph88%30.15 "Hg6 mi
5:50 PM61 °FMostly cloudy.5 mph88%30.18 "Hg5 mi
Weather by CustomWeather, © 2015

See weather overviewHow to use our weather pages